[[{"header":{"parameterUnit":"m.s-1","parameterCategory":1,"la1":30.2991,"la2":30.254,"lo1":-89.0895,"lo2":-89.0444,"dy":0.0017,"dx":0.0017,"nx":28,"ny":28,"refTime":"2025-02-03T03:00:00:Z","depth":0,"parameterNumber":2,"parameterNumberName":"U-component_of_WINDS"},"data":[0,0,0,0,0,0,0,0,0,0,0,0,0,0,0,0,0,0,0,0,0,0,0,0,0,0,0,0,0,0,0,0,0,0,0,0,0,0,0,0,0,0,0,0,0,0,0,0,0,0,0,0,0,0,0,0,0,0,-0.7934,-0.7933,0,-0.7906,-0.7905,-0.7905,-0.7888,-0.7888,-0.7888,-0.7888,-0.7858,-0.7857,-0.7856,0,0,0,0,0,0,0,0,0,0,0,0,0,-0.797,-0.797,-0.7934,-0.7933,-0.7933,-0.7906,-0.7905,-0.7905,-0.7888,-0.7888,-0.7888,-0.7888,-0.7858,-0.7857,-0.7856,0,0,0,0,0,0,0,0,0,0,0,0,0,-0.795,-0.797,-0.7934,-0.7921,-0.792,-0.7906,-0.7905,-0.7905,-0.7888,-0.7888,-0.7888,-0.7888,-0.7858,-0.7857,-0.7856,-0.7852,0,0,-0.7853,-0.7852,0,0,0,0,0,0,0,0,-0.7951,-0.7948,-0.7923,-0.7922,-0.7921,-0.79,-0.7907,-0.7887,-0.7888,-0.79,-0.7888,-0.7888,-0.7872,-0.787,-0.7865,-0.785,-0.7849,-0.7853,-0.7852,-0.7851,-0.7851,0,0,0,0,0,0,0,-0.7952,-0.7949,-0.7923,-0.7923,-0.7921,-0.7917,-0.7913,-0.7903,-0.7887,-0.7899,-0.7898,-0.7895,-0.7871,-0.7866,-0.7864,-0.7848,-0.7853,-0.7852,-0.7851,-0.785,-0.7829,-0.7829,0,0,0,0,0,0,-0.7956,-0.7951,-0.7923,-0.7922,-0.7936,-0.7916,-0.7913,-0.7907,-0.7887,-0.7884,-0.7895,-0.7894,-0.7868,-0.7865,-0.7863,-0.7856,-0.7851,-0.785,-0.785,-0.7829,-0.7829,-0.7829,0,0,0,0,0,0,-0.7957,-0.7954,-0.7925,-0.7936,-0.7932,-0.7915,-0.7909,-0.7906,-0.7901,-0.7884,-0.7881,-0.7893,-0.7867,-0.7864,-0.7855,-0.7855,-0.785,-0.7849,-0.7829,-0.7829,-0.7829,-0.7843,0,0,0,0,0,0,-0.7958,-0.7954,-0.7953,-0.7936,-0.7931,-0.7918,-0.7909,-0.7906,-0.79,-0.7898,-0.7881,-0.7878,-0.7867,-0.7856,-0.7853,-0.7853,-0.7848,-0.7828,-0.7829,-0.7829,-0.7842,-0.7844,-0.7845,0,0,0,0,0,-0.7959,-0.7957,-0.7953,-0.795,-0.7929,-0.7918,-0.7915,-0.7903,-0.79,-0.7898,-0.7887,-0.7879,-0.7855,-0.7855,-0.7852,-0.7851,-0.7828,-0.7829,-0.7829,-0.7842,-0.7843,-0.7845,0,0,0,0,0,0,-0.7974,-0.7955,-0.795,-0.7942,-0.7932,-0.7915,-0.7912,-0.7905,-0.7895,-0.7894,-0.7879,-0.7875,-0.7867,-0.7858,-0.7859,-0.7846,-0.7841,-0.784,-0.7852,-0.7853,-0.7854,-0.7856,-0.7847,0,0,0,0,0,-0.7977,-0.7969,-0.7953,-0.7948,-0.7943,-0.7929,-0.7923,-0.7915,-0.7903,-0.7898,-0.7886,-0.7875,-0.7865,-0.7859,-0.7848,-0.7841,-0.7837,-0.7839,-0.784,-0.7841,-0.7841,-0.7836,-0.7837,-0.7829,-0.7829,-0.7829,0,0,-0.7982,-0.797,-0.7966,-0.7951,-0.7942,-0.7934,-0.7925,-0.7917,-0.7911,-0.7897,-0.7887,-0.7878,-0.7864,-0.7856,-0.7851,-0.7848,-0.7842,-0.7841,-0.7842,-0.7841,-0.7836,-0.7837,-0.7837,-0.783,-0.7829,-0.7829,0,0,-0.7987,-0.7978,-0.7972,-0.7964,-0.795,-0.794,-0.7939,-0.7923,-0.7917,-0.7907,-0.7896,-0.7888,-0.7872,-0.7862,-0.7855,-0.7856,-0.7848,-0.7853,-0.7859,-0.7854,-0.7855,-0.7855,-0.7856,-0.7856,-0.7853,-0.7853,-0.7853,0,-0.7994,-0.7983,-0.7971,-0.7964,-0.7957,-0.7944,-0.7939,-0.793,-0.7914,-0.7909,-0.7906,-0.7885,-0.7874,-0.7864,-0.7864,-0.7859,-0.7856,-0.7855,-0.7856,-0.7856,-0.7856,-0.7857,-0.7857,-0.7854,-0.7854,-0.7854,-0.7854,0,-0.7993,-0.7985,-0.7982,-0.7967,-0.796,-0.7954,-0.794,-0.7935,-0.7927,-0.7918,-0.7907,-0.7895,-0.7882,-0.7878,-0.7871,-0.7866,-0.7865,-0.7859,-0.7853,-0.7858,-0.7858,-0.7858,-0.7855,-0.7855,-0.7854,-0.7854,0,0,-0.8006,-0.7985,-0.7984,-0.7977,-0.7961,-0.7955,-0.7948,-0.7935,-0.7931,-0.792,-0.7913,-0.7899,-0.7894,-0.7886,-0.7877,-0.7873,-0.7874,-0.7867,-0.7867,-0.7869,-0.7868,-0.7873,-0.7873,-0.7869,-0.7869,-0.7869,-0.7869,0,-0.8009,-0.7996,-0.7985,-0.7976,-0.7969,-0.7956,-0.795,-0.7939,-0.793,-0.7922,-0.7912,-0.7902,-0.7896,-0.7891,-0.7887,-0.7875,-0.7874,-0.7875,-0.7862,-0.7862,-0.7866,-0.7873,-0.7877,-0.7879,-0.7869,-0.7869,-0.7869,0,-0.8011,-0.8001,-0.7991,-0.7976,-0.7972,-0.7967,-0.7955,-0.7947,-0.7934,-0.7928,-0.7919,-0.791,-0.7901,-0.7897,-0.7884,-0.7885,-0.7879,-0.7873,-0.7872,-0.787,-0.7866,-0.7871,-0.7879,-0.7879,-0.7869,-0.7869,-0.7869,0,-0.8021,-0.8006,-0.7998,-0.7992,-0.7974,-0.7971,-0.7963,-0.795,-0.7943,-0.7933,-0.7928,-0.7916,-0.791,-0.79,-0.7888,-0.7886,-0.7876,-0.7871,-0.787,-0.7871,-0.7869,-0.7869,-0.7875,-0.7865,-0.7865,-0.7865,-0.7865,0,-0.8025,-0.802,-0.8002,-0.7998,-0.7991,-0.7978,-0.7972,-0.7963,-0.7951,-0.7944,-0.7933,-0.7926,-0.791,-0.7901,-0.7891,-0.7882,-0.7879,-0.7873,-0.7871,-0.7875,-0.7875,-0.787,-0.787,-0.7865,-0.7865,-0.7865,-0.7865,0,-0.8036,-0.8024,-0.8015,-0.7999,-0.7995,-0.7991,-0.7976,-0.7971,-0.7961,-0.7952,-0.7949,-0.7934,-0.7923,-0.791,-0.7894,-0.7887,-0.7879,-0.7875,-0.7884,-0.7882,-0.7883,-0.7883,-0.7886,-0.7886,-0.7876,-0.7876,-0.7876,0,-0.804,-0.8036,-0.8019,-0.8014,-0.8006,-0.7998,-0.7991,-0.7978,-0.7971,-0.7956,-0.7953,-0.7941,-0.7931,-0.7914,-0.7901,-0.7889,-0.7885,-0.7887,-0.7883,-0.7886,-0.7884,-0.7885,-0.7884,-0.7888,-0.7888,-0.7888,-0.7888,0,-0.8047,-0.8042,-0.8033,-0.8021,-0.8014,-0.8004,-0.7994,-0.799,-0.7975,-0.7968,-0.7957,-0.7949,-0.7934,-0.7922,-0.7909,-0.79,-0.7891,-0.7889,-0.7889,-0.7892,-0.7897,-0.7895,-0.7887,-0.7889,-0.7889,-0.7889,-0.7889,-0.7889,-0.8054,-0.805,-0.8038,-0.8028,-0.8019,-0.801,-0.8004,-0.7994,-0.7985,-0.7971,-0.7964,-0.7953,-0.794,-0.7921,-0.7912,-0.7903,-0.79,-0.7899,-0.7899,-0.7899,-0.79,-0.7899,-0.7901,-0.7901,-0.7901,-0.7901,-0.7901,0,-0.8061,-0.8053,-0.8044,-0.803,-0.8023,-0.8016,-0.8004,-0.7998,-0.7989,-0.7978,-0.7968,-0.7955,-0.7944,-0.793,-0.7918,-0.7913,-0.7909,-0.791,-0.7911,-0.7909,-0.7903,-0.7905,-0.7914,-0.7914,-0.7914,-0.7914,-0.7914,-0.7914,-0.8064,-0.8056,-0.8049,-0.8036,-0.8027,-0.8017,-0.8011,-0.8002,-0.7993,-0.798,-0.7971,-0.7962,-0.7949,-0.7936,-0.7925,-0.7921,-0.7917,-0.792,-0.7915,-0.791,-0.7909,-0.7908,-0.791,-0.7919,-0.7919,-0.792,-0.792,-0.792]},{"header":{"parameterUnit":"m.s-1","parameterCategory":1,"la1":30.2991,"la2":30.254,"lo1":-89.0895,"lo2":-89.0444,"dy":0.0017,"dx":0.0017,"nx":28,"ny":28,"refTime":"2025-02-03T03:00:00:Z","depth":0,"parameterNumber":3,"parameterNumberName":"V-component_of_WINDS"},"data":[0,0,0,0,0,0,0,0,0,0,0,0,0,0,0,0,0,0,0,0,0,0,0,0,0,0,0,0,0,0,0,0,0,0,0,0,0,0,0,0,0,0,0,0,0,0,0,0,0,0,0,0,0,0,0,0,0,0,1.7606,1.7606,0,1.764,1.764,1.764,1.7643,1.7642,1.7642,1.7642,1.7676,1.7677,1.7679,0,0,0,0,0,0,0,0,0,0,0,0,0,1.7546,1.7547,1.7606,1.7606,1.7607,1.764,1.764,1.7641,1.7643,1.7642,1.7642,1.7641,1.7676,1.7677,1.7679,0,0,0,0,0,0,0,0,0,0,0,0,0,1.7575,1.7547,1.7606,1.7612,1.7613,1.764,1.764,1.7641,1.7643,1.7642,1.7642,1.7641,1.7675,1.7677,1.7679,1.7702,0,0,1.7685,1.7686,0,0,0,0,0,0,0,0,1.7573,1.7577,1.7611,1.7612,1.7613,1.7636,1.7632,1.7661,1.7643,1.7631,1.7642,1.7641,1.7663,1.7666,1.7674,1.7704,1.7705,1.7685,1.7686,1.7687,1.7688,0,0,0,0,0,0,0,1.7571,1.7576,1.7619,1.7611,1.7612,1.7614,1.7617,1.7637,1.765,1.7632,1.7633,1.7637,1.7664,1.7672,1.7675,1.7706,1.7685,1.7687,1.7688,1.7689,1.7759,1.776,0,0,0,0,0,0,1.7568,1.7574,1.7618,1.762,1.7591,1.7615,1.7619,1.7629,1.765,1.7653,1.7637,1.7637,1.7669,1.7672,1.7676,1.7706,1.7687,1.7689,1.769,1.7759,1.776,1.776,0,0,0,0,0,0,1.7567,1.7572,1.7617,1.7597,1.7603,1.7617,1.7628,1.763,1.7638,1.7654,1.7656,1.7643,1.7669,1.7673,1.7696,1.7707,1.769,1.7692,1.7758,1.7759,1.776,1.7766,0,0,0,0,0,0,1.7565,1.7571,1.758,1.7598,1.7604,1.7636,1.7629,1.7631,1.7642,1.7641,1.766,1.7662,1.7669,1.7693,1.7698,1.771,1.7693,1.7757,1.7758,1.776,1.7764,1.7767,1.7769,0,0,0,0,0,1.7563,1.758,1.758,1.7585,1.7615,1.7637,1.7641,1.7648,1.7642,1.7652,1.7662,1.7662,1.7705,1.7696,1.7701,1.7713,1.7756,1.7758,1.776,1.7764,1.7766,1.7769,0,0,0,0,0,0,1.7562,1.7582,1.7583,1.7606,1.762,1.7637,1.7648,1.765,1.7666,1.7665,1.7673,1.7677,1.77,1.7709,1.7698,1.7738,1.773,1.7733,1.7732,1.7734,1.7736,1.7734,1.7695,0,0,0,0,0,1.7565,1.7581,1.7597,1.7616,1.7623,1.7635,1.7644,1.7649,1.7663,1.7669,1.7681,1.7696,1.7713,1.7724,1.7741,1.7766,1.7771,1.7777,1.7779,1.7781,1.7783,1.7799,1.7803,1.7766,1.7766,1.7766,0,0,1.757,1.7583,1.7592,1.7616,1.7627,1.7644,1.7639,1.7657,1.767,1.7672,1.7695,1.7704,1.7721,1.7746,1.7757,1.7754,1.7795,1.7783,1.7784,1.7786,1.7801,1.7805,1.7808,1.7767,1.7767,1.7766,0,0,1.7589,1.76,1.7617,1.7629,1.7647,1.7655,1.7659,1.7677,1.7683,1.7706,1.7709,1.7725,1.7754,1.7767,1.7777,1.7803,1.7804,1.7808,1.7819,1.7835,1.7837,1.784,1.7851,1.7854,1.781,1.781,1.781,0,1.7594,1.7619,1.7626,1.7644,1.7656,1.7659,1.7678,1.7689,1.7711,1.7719,1.7715,1.7753,1.7764,1.7793,1.78,1.7807,1.7814,1.7806,1.7836,1.7839,1.7842,1.7852,1.7856,1.7811,1.7811,1.7811,1.7811,0,1.7624,1.7642,1.7654,1.7676,1.7689,1.7707,1.7718,1.773,1.7734,1.7743,1.7768,1.7782,1.7802,1.781,1.7813,1.784,1.7837,1.7835,1.7827,1.7846,1.7856,1.7859,1.7811,1.7811,1.7811,1.7811,0,0,1.7643,1.767,1.7674,1.7685,1.7705,1.7719,1.7739,1.7759,1.777,1.7786,1.7803,1.7829,1.7827,1.7839,1.7844,1.7858,1.788,1.7854,1.7854,1.7859,1.7912,1.7914,1.7918,1.7881,1.7881,1.7882,1.7911,0,1.7665,1.7698,1.7707,1.7736,1.7754,1.7758,1.7775,1.779,1.78,1.7816,1.7827,1.7845,1.7841,1.7849,1.7862,1.7874,1.789,1.7872,1.7898,1.7899,1.7894,1.7923,1.7925,1.7951,1.7914,1.7915,1.7915,0,1.7694,1.7711,1.7742,1.7763,1.777,1.7785,1.7806,1.7821,1.7839,1.7845,1.7859,1.7864,1.7886,1.7877,1.7908,1.7895,1.7907,1.7914,1.7915,1.7918,1.7908,1.7928,1.796,1.7964,1.7921,1.7921,1.7921,0,1.7706,1.7737,1.776,1.7769,1.7792,1.7803,1.7814,1.7831,1.7843,1.7862,1.787,1.789,1.7902,1.7918,1.7928,1.7921,1.7959,1.7951,1.7966,1.7966,1.7973,1.7973,1.8009,1.798,1.7979,1.7979,1.7979,0,1.773,1.7749,1.7766,1.778,1.7802,1.7812,1.7834,1.7845,1.7861,1.7878,1.7883,1.79,1.7912,1.7931,1.7939,1.7965,1.7969,1.7976,1.7978,1.7976,1.7975,1.7983,1.7982,1.798,1.798,1.798,1.798,0,1.7746,1.7758,1.7784,1.7805,1.7811,1.7826,1.7845,1.7859,1.787,1.7892,1.7898,1.7914,1.7936,1.7948,1.7976,1.7982,1.801,1.8011,1.8004,1.8005,1.802,1.8019,1.8063,1.807,1.8035,1.8036,1.8036,0,1.7761,1.7776,1.7799,1.7811,1.7822,1.7841,1.7854,1.7865,1.7879,1.7902,1.7914,1.7937,1.7955,1.7991,1.8006,1.8028,1.803,1.8044,1.8033,1.8031,1.8031,1.8031,1.8033,1.8045,1.8046,1.8046,1.8046,0,1.7786,1.7792,1.781,1.7831,1.7847,1.7864,1.7881,1.7891,1.7905,1.792,1.7943,1.7958,1.7987,1.801,1.8034,1.8045,1.8049,1.805,1.8054,1.8053,1.8049,1.8052,1.801,1.8048,1.8048,1.8048,1.8048,1.8048,1.7803,1.7818,1.7837,1.7857,1.7872,1.7888,1.7903,1.7916,1.7935,1.796,1.7966,1.799,1.801,1.8042,1.8055,1.8075,1.8073,1.8079,1.8081,1.8083,1.8084,1.8045,1.8079,1.8079,1.8079,1.8079,1.8079,0,1.783,1.7843,1.7862,1.7886,1.7903,1.7905,1.7924,1.7939,1.796,1.7978,1.7997,1.8025,1.8048,1.8065,1.8089,1.8102,1.8104,1.8108,1.8107,1.811,1.8084,1.8078,1.8106,1.8106,1.8106,1.8106,1.8106,1.8106,1.7846,1.7871,1.7879,1.7912,1.7925,1.7949,1.796,1.7976,1.799,1.8021,1.804,1.8051,1.807,1.8095,1.8117,1.8122,1.8131,1.8134,1.8139,1.8115,1.8112,1.8109,1.8104,1.8136,1.8136,1.8164,1.8164,1.8164]}]]